Regional Weather Roundup
Issued by NWS

Home | Current Version | Previous Version | Graphics & Text | Print | Product List | Glossary On
Versions: 1 2 3 4 5 6 7 8 9 10 11 12 13 14 15 16 17 18 19 20 21 22 23 24 25 26 27
000
ASUS45 KSLC 060010
RWRUT

UTAH REGIONAL WEATHER ROUNDUP
NATIONAL WEATHER SERVICE SALT LAKE CITY UT
500 PM MST MON DEC 05 2016

UTZ001>011-023>025-060100-

NORTHERN UTAH

CITY           SKY/WX    TMP DP  RH WIND       PRES   REMARKS
BRIGHAM CITY     N/A     30   7  37 SW5       30.04S WCI  25
DUGWAY         MOCLDY    32 -11  15 NE6       30.03S WCI  26
HILL AFB       CLEAR     26   0  32 CALM      30.01F
LOGAN          CLEAR    N/A N/A N/A CALM      30.02S
OGDEN          CLEAR     27   3  35 CALM      30.02S
SALT LAKE CITY PTCLDY    30   8  39 NW3       30.03F
TOOELE VALLEY  CLOUDY    30  12  47 CALM      30.04S
WENDOVER       CLOUDY    30   3  31 SE3       30.02F
HEBER CITY     CLOUDY    27  -8  22 NE5       29.96S WCI  21
WEST JORDAN    CLOUDY    28  11  48 CALM      30.03F

$$

UTZ011>015-024>027-060100-

CENTRAL/NORTHEAST UTAH

CITY           SKY/WX    TMP DP  RH WIND       PRES   REMARKS
PROVO AIRPORT  CLOUDY    29   8  41 N5        30.03F WCI  24
MOAB/CANYONLAN CLEAR     39  12  33 NW9       29.87R WCI  33
DELTA          MOCLDY    32  -2  23 N7        29.99S WCI  26
PRICE          PTCLDY    27   4  37 NW10G17   29.91R WCI  17
ROOSEVELT      PTCLDY    30 -15  13 W15       29.97R WCI  19
VERNAL         CLEAR     27 -12  18 N13       29.93R WCI  16

$$

UTZ013>016-019>022-027-060100-

SOUTHERN UTAH

CITY           SKY/WX    TMP DP  RH WIND       PRES   REMARKS
BRYCE CANYON   PTCLDY    32  10  40 NW12      29.90F WCI  23
CEDAR CITY     PTCLDY    33  16  49 CALM      29.92S
MILFORD        CLEAR     34   8  33 N10       29.95S WCI  26
ST GEORGE      MOCLDY    54  18  24 SW3       29.90F
HANKSVILLE     CLEAR     43  18  36 NE10      29.88S
BLANDING       CLEAR     39  18  41 CALM      29.93S

$$

REGIONAL REPORTS     COLORADO/ARIZONA

CITY           SKY/WX    TMP DP  RH WIND       PRES   REMARKS
CRAIG, CO      CLOUDY    20  -9  27 W9        29.94R WCI   9
GRAND JUNCTION PTCLDY    36  14  40 W10       29.85R WCI  28
RIFLE, CO      CLOUDY    34   8  33 NW22G33   29.85R WCI  22
MONTROSE, CO   CLOUDY    39  11  31 NW15      29.85R WCI  31
CORTEZ, CO     CLEAR     41  18  39 NW7       29.86R
COLORADO CITY    N/A     48  18  29 CALM      29.93S
PAGE, AZ       MOCLDY    47  18  31 S3        29.84S
GRAND CANYON   PTCLDY    42  16  34 CALM      29.95S
KINGMAN, AZ    MOCLDY    53   7  15 SW9       29.90F
FLAGSTAFF, AZ  PTCLDY    39  14  36 SW12      29.96R WCI  32

$$

REGIONAL REPORTS    NEVADA/IDAHO/WYOMING

CITY           SKY/WX    TMP DP  RH WIND       PRES   REMARKS
LAS VEGAS, NV  MOCLDY    59  15  18 CALM      29.88S
ELY, NY        CLEAR     34  14  43 NW5       29.89F WCI  30
ELKO, NV       CLEAR     31   9  39 CALM      29.95F
POCATELLO, ID  PTCLDY    21  11  65 S12       30.04R WCI   9
BURLEY, ID     CLEAR     23  13  65 W3        30.03S
FORT BRIDGER,    N/A     13 -11  34 NW6       29.94S WCI   3
EVANSTON, WY   CLEAR     12 -16  27 W10       29.91S WCI  -1
ROCK SPRINGS,  CLEAR     13  -6  42 W14       29.90R WCI  -2

$$




USA.gov is the U.S. government's official web portal to all federal, state and local government web resources and services.